Santuari del Coll - Susqueda





Hora UTC 17:15
Temperatura 17.2 ºC
Humitat 85.0 %
Pressió 1009.8 hPa
Pluja 0.2 mm
Velocitat vent 4.8 km/h
Direcció vent SSE

Dades diàries 2020-08-03



Hora UTC (hivern +1h; estiu +2h)
Temperatura (ºC) Humitat (%) Pressió (hPa) Velocitat vent (km/h) Precipitació (mm)
Hora UTC Aire Humitat Pressió Vel. Dir. Vel. Max Dir. Intent. màx 5 min.
00:05 17.4 94.0 1010.4 0.0 NNW 0.0 0.0
00:10 17.4 94.0 1010.4 1.6 NNW 6.4 0.0
00:15 17.4 94.0 1010.3 0.0 NNW 6.4 0.0
00:20 17.3 94.0 1010.4 3.2 WNW 6.4 0.0
00:25 17.2 94.0 1010.3 1.6 S 3.2 0.0
00:30 17.1 94.0 1010.2 1.6 E 6.4 0.0
00:35 17.1 94.0 1010.3 1.6 E 6.4 0.0
00:40 17.1 94.0 1010.2 0.0 E 3.2 0.0
00:45 17.1 94.0 1010.3 0.0 E 1.6 0.0
00:50 17.1 94.0 1010.2 1.6 NW 4.8 0.0
00:55 17.2 95.0 1010.1 0.0 E 4.8 0.0
01:00 17.2 95.0 1010.1 1.6 NW 4.8 0.0
01:05 17.3 94.0 1009.9 0.0 WNW 3.2 0.0
01:10 17.3 94.0 1009.8 3.2 WSW 11.3 0.0
01:15 17.3 94.0 1009.8 3.2 SSW 9.7 0.0
01:20 17.3 94.0 1009.7 1.6 E 8.0 0.0
01:25 17.2 94.0 1009.5 1.6 SE 11.3 0.0
01:30 17.1 94.0 1009.4 3.2 SSE 11.3 0.0
01:35 16.9 94.0 1009.4 1.6 SSE 9.7 0.0
01:40 16.6 94.0 1009.3 0.0 SSE 8.0 0.0
01:45 16.3 93.0 1009.2 3.2 WNW 6.4 0.0
01:50 16.1 93.0 1009.2 11.3 NW 11.3 0.0
01:55 15.9 93.0 1009.2 1.6 W 11.3 0.0
02:00 15.7 92.0 1009.4 4.8 W 14.5 0.0
02:05 15.7 92.0 1009.5 0.0 SE 14.5 0.0
02:10 15.6 90.0 1009.4 1.6 SSE 19.3 0.0
02:15 15.6 89.0 1009.4 0.0 SSE 19.3 0.0
02:20 15.6 88.0 1009.4 4.8 SW 14.5 0.0
02:25 15.6 86.0 1009.4 4.8 SE 11.3 0.0
02:25 15.6 85.0 1009.4 3.2 W 11.3 0.0
02:35 15.6 84.0 1009.4 6.4 W 16.1 0.0
02:40 15.6 85.0 1009.6 0.0 SSW 17.7 0.0
02:45 15.3 85.0 1009.6 16.1 WNW 17.7 0.0
02:50 15.2 85.0 1009.6 6.4 SSE 22.5 0.0
02:55 14.9 85.0 1009.7 1.6 W 22.5 0.0
03:00 14.8 85.0 1009.7 6.4 SSW 19.3 0.0
03:05 14.7 86.0 1009.6 16.1 E 17.7 0.0
03:10 14.6 85.0 1009.5 0.0 SSW 16.1 0.0
03:15 14.5 86.0 1009.3 3.2 SSE 14.5 0.0
03:20 14.4 86.0 1009.4 3.2 NNW 19.3 0.0
03:25 14.4 85.0 1009.3 4.8 WNW 19.3 0.0
03:30 14.3 87.0 1009.6 8.0 NNE 19.3 0.2
03:35 14.3 87.0 1009.6 3.2 W 19.3 0.0
03:40 14.1 88.0 1009.7 3.2 SW 14.5 0.0
03:45 13.9 88.0 1009.7 8.0 E 20.9 0.0
03:50 13.8 89.0 1009.8 9.7 W 20.9 0.0
03:55 13.7 89.0 1009.7 4.8 SW 20.9 0.0
04:00 13.7 89.0 1009.7 30.6 SW 30.6 0.0
04:05 13.6 88.0 1009.5 1.6 ESE 30.6 0.0
04:10 13.6 88.0 1009.5 9.7 W 27.4 0.0
04:15 13.6 88.0 1009.5 11.3 E 27.4 0.0
04:20 13.7 88.0 1009.3 3.2 NE 20.9 0.0
04:25 13.8 87.0 1009.1 6.4 W 19.3 0.0
04:30 13.9 86.0 1009.6 8.0 E 19.3 0.0
04:35 14.1 86.0 1009.7 4.8 N 19.3 0.0
04:40 14.1 85.0 1009.8 3.2 N 8.0 0.0
04:45 14.1 85.0 1009.8 3.2 WNW 9.7 0.0
04:50 13.9 85.0 1009.8 4.8 WNW 14.5 0.0
04:55 13.9 85.0 1009.7 4.8 SW 16.1 0.0
05:00 13.8 85.0 1009.8 1.6 SW 11.3 0.0
05:05 13.8 86.0 1009.8 0.0 NNW 9.7 0.0
05:10 13.7 86.0 1009.8 3.2 NNW 9.7 0.0
05:15 13.7 86.0 1009.7 1.6 SSE 8.0 0.0
05:20 13.6 86.0 1009.8 0.0 WSW 8.0 0.0
05:25 13.6 86.0 1009.6 3.2 W 4.8 0.0
05:30 13.6 86.0 1009.9 0.0 S 4.8 0.0
05:35 13.6 86.0 1009.9 6.4 WNW 12.9 0.0
05:40 13.6 86.0 1009.9 1.6 WSW 12.9 0.0
05:45 13.5 86.0 1010.1 0.0 S 11.3 0.0
05:50 13.5 86.0 1010.2 0.0 ESE 9.7 0.0
05:55 13.5 87.0 1010.3 0.0 ESE 9.7 0.0
06:00 13.6 87.0 1010.0 1.6 SE 12.9 0.0
06:05 13.6 87.0 1010.1 3.2 SSE 14.5 0.0
06:10 13.6 87.0 1010.0 8.0 SSE 14.5 0.0
06:15 13.6 87.0 1010.1 0.0 SSE 17.7 0.0
06:20 13.7 86.0 1010.2 0.0 SSE 17.7 0.0
06:25 13.8 87.0 1010.3 3.2 WNW 6.4 0.0
06:30 13.9 88.0 1010.4 0.0 NW 6.4 0.0
06:35 13.9 89.0 1010.2 3.2 W 6.4 0.0
06:40 13.8 89.0 1010.2 1.6 W 6.4 0.0
06:45 13.7 89.0 1010.4 0.0 W 3.2 0.0
06:50 13.6 88.0 1010.1 0.0 WSW 3.2 0.0
06:55 13.7 89.0 1010.1 0.0 WSW 3.2 0.0
07:00 13.8 88.0 1010.2 0.0 WSW 1.6 0.0
07:05 13.9 88.0 1010.3 0.0 WSW 3.2 0.0
07:10 14.2 87.0 1010.3 0.0 WSW 4.8 0.0
07:15 14.8 84.0 1010.6 0.0 WSW 4.8 0.0
07:20 15.7 81.0 1010.5 1.6 WNW 4.8 0.0
07:25 16.3 77.0 1010.7 1.6 W 6.4 0.0
07:30 16.8 74.0 1010.8 3.2 W 4.8 0.0
07:35 17.2 74.0 1010.7 1.6 W 6.4 0.0
07:40 17.2 74.0 1010.7 1.6 SSW 9.7 0.0
07:45 17.3 74.0 1010.6 6.4 W 12.9 0.0
07:50 17.2 73.0 1010.5 4.8 W 12.9 0.0
07:55 17.2 73.0 1010.6 1.6 SW 9.7 0.0
08:00 17.2 74.0 1010.5 1.6 SW 9.7 0.0
08:05 17.4 74.0 1010.6 1.6 WSW 6.4 0.0
08:10 17.5 75.0 1010.6 1.6 SW 6.4 0.0
08:15 17.7 74.0 1010.5 4.8 WNW 8.0 0.0
08:20 17.9 74.0 1010.5 6.4 WSW 11.3 0.0
08:25 17.9 74.0 1010.7 3.2 SSW 11.3 0.0
08:30 18.1 75.0 1010.7 1.6 WNW 9.7 0.0
08:35 18.2 75.0 1010.7 14.5 NW 14.5 0.0
08:40 18.2 75.0 1010.7 3.2 W 14.5 0.0
08:45 18.2 76.0 1010.7 1.6 SSW 6.4 0.0
08:50 18.3 74.0 1010.6 1.6 SSE 6.4 0.0
08:55 18.5 74.0 1010.6 3.2 SE 12.9 0.0
09:00 18.8 73.0 1010.7 1.6 E 14.5 0.0
09:05 19.4 73.0 1010.7 4.8 ESE 14.5 0.0
09:10 19.7 70.0 1010.6 1.6 E 11.3 0.0
09:15 19.6 70.0 1010.7 1.6 ESE 14.5 0.0
09:20 19.3 72.0 1010.6 6.4 ESE 11.3 0.0
09:25 19.3 71.0 1010.5 1.6 SSE 12.9 0.0
09:30 19.2 73.0 1010.5 6.4 ESE 14.5 0.0
09:35 19.8 73.0 1010.6 6.4 NNW 14.5 0.0
09:40 19.6 71.0 1010.6 1.6 NW 12.9 0.0
09:45 19.2 69.0 1010.8 1.6 WNW 9.7 0.0
09:50 19.1 71.0 1010.7 0.0 NNE 8.0 0.0
09:55 18.9 70.0 1010.8 4.8 NW 8.0 0.0
10:00 18.7 70.0 1010.7 3.2 WNW 11.3 0.0
10:05 18.7 70.0 1010.8 4.8 NNW 6.4 0.0
10:10 18.4 69.0 1010.8 0.0 SW 6.4 0.0
10:15 18.4 71.0 1010.9 4.8 WNW 4.8 0.0
10:20 18.4 71.0 1010.9 1.6 NW 6.4 0.0
10:25 18.4 72.0 1010.9 0.0 NW 4.8 0.0
10:30 18.7 71.0 1010.8 0.0 NW 3.2 0.0
10:35 19.0 70.0 1010.8 0.0 SE 4.8 0.0
10:40 19.2 70.0 1010.8 3.2 N 4.8 0.0
10:45 19.5 69.0 1010.8 3.2 NNW 8.0 0.0
10:50 19.7 69.0 1010.9 0.0 E 6.4 0.0
10:55 19.5 66.0 1010.9 1.6 ENE 6.4 0.0
11:00 19.4 67.0 1010.9 3.2 N 4.8 0.0
11:05 19.3 67.0 1010.9 1.6 NNE 4.8 0.0
11:10 19.4 68.0 1010.9 4.8 E 4.8 0.0
11:15 19.5 70.0 1010.9 0.0 ENE 4.8 0.0
11:20 19.6 69.0 1010.9 0.0 ENE 4.8 0.0
11:25 19.9 70.0 1010.9 0.0 ESE 4.8 0.0
11:30 20.3 68.0 1010.9 0.0 N 6.4 0.0
11:35 20.4 68.0 1010.9 3.2 NNW 6.4 0.0
11:40 20.3 67.0 1011.0 1.6 NNW 4.8 0.0
11:40 20.5 68.0 1010.9 4.8 N 4.8 0.0
11:50 20.4 66.0 1010.9 0.0 N 6.4 0.0
11:55 20.7 63.0 1010.9 3.2 NE 4.8 0.0
12:00 20.8 65.0 1010.9 1.6 ESE 6.4 0.0
12:05 21.3 64.0 1010.8 0.0 E 11.3 0.0
12:10 21.6 61.0 1010.7 3.2 NE 9.7 0.0
12:15 21.4 61.0 1010.6 8.0 NNW 9.7 0.0
12:20 21.6 60.0 1010.7 6.4 NNW 9.7 0.0
12:25 21.4 62.0 1010.5 1.6 ESE 8.0 0.0
12:30 21.7 64.0 1010.5 4.8 E 6.4 0.0
12:35 21.5 66.0 1010.5 3.2 E 6.4 0.0
12:40 21.4 67.0 1010.4 3.2 ESE 6.4 0.0
12:45 21.1 66.0 1010.4 0.0 ESE 9.7 0.0
12:50 21.2 69.0 1010.4 4.8 E 9.7 0.0
12:55 21.2 67.0 1010.3 3.2 E 4.8 0.0
13:00 20.9 67.0 1010.4 6.4 SSE 8.0 0.0
13:05 20.9 69.0 1010.4 1.6 SE 8.0 0.0
13:10 21.1 70.0 1010.3 1.6 ESE 9.7 0.0
13:15 21.1 69.0 1010.3 6.4 E 11.3 0.0
13:20 20.7 70.0 1010.3 4.8 ESE 11.3 0.0
13:25 20.3 72.0 1010.2 11.3 E 11.3 0.0
13:30 19.9 72.0 1010.2 4.8 SE 12.9 0.0
13:35 19.7 74.0 1010.2 4.8 SE 12.9 0.0
13:40 19.6 73.0 1010.1 3.2 ESE 12.9 0.0
13:45 19.7 74.0 1010.0 12.9 E 17.7 0.0
13:50 19.7 73.0 1009.9 6.4 SE 17.7 0.0
13:55 19.4 74.0 1009.9 6.4 SE 17.7 0.0
14:00 19.4 74.0 1009.9 6.4 ESE 17.7 0.0
14:05 19.4 73.0 1009.8 6.4 SE 16.1 0.0
14:10 19.5 73.0 1009.7 1.6 ESE 16.1 0.0
14:15 19.6 74.0 1009.7 6.4 ESE 19.3 0.0
14:20 19.8 73.0 1009.7 14.5 E 20.9 0.0
14:25 19.6 73.0 1009.8 11.3 SE 20.9 0.0
14:30 19.5 75.0 1009.7 6.4 E 20.9 0.0
14:35 19.3 76.0 1009.7 3.2 ESE 16.1 0.0
14:40 19.2 78.0 1009.7 8.0 SE 16.1 0.0
14:45 19.1 78.0 1009.7 6.4 SE 16.1 0.0
14:50 18.8 79.0 1009.7 9.7 E 17.7 0.0
14:55 18.4 80.0 1009.7 14.5 SSE 17.7 0.0
15:00 18.1 81.0 1009.8 9.7 SE 19.3 0.0
15:05 17.9 82.0 1009.8 16.1 ESE 19.3 0.0
15:10 17.7 82.0 1009.6 14.5 SSE 24.1 0.0
15:15 17.6 83.0 1009.6 11.3 SE 24.1 0.0
15:20 18.1 83.0 1009.7 12.9 S 19.3 0.0
15:25 18.3 82.0 1009.7 4.8 ESE 19.3 0.0
15:30 18.5 81.0 1009.6 14.5 E 17.7 0.0
15:35 18.4 80.0 1009.8 4.8 ESE 17.7 0.0
15:40 18.4 81.0 1009.8 11.3 SSE 16.1 0.0
15:40 18.3 81.0 1009.7 4.8 SE 14.5 0.0
15:50 18.3 82.0 1009.8 4.8 SE 16.1 0.0
15:55 18.3 83.0 1009.7 4.8 ESE 16.1 0.0
16:00 18.3 82.0 1009.7 6.4 SE 17.7 0.0
16:05 18.2 82.0 1009.7 12.9 SSE 22.5 0.0
16:10 18.1 83.0 1009.6 6.4 ESE 22.5 0.0
16:15 18.0 83.0 1009.8 4.8 ESE 22.5 0.0
16:20 17.9 83.0 1010.0 4.8 ESE 22.5 0.0
16:25 17.9 84.0 1010.0 12.9 ESE 17.7 0.0
16:30 17.8 84.0 1009.9 14.5 SE 22.5 0.0
16:35 17.6 84.0 1010.0 12.9 ESE 22.5 0.0
16:40 17.4 85.0 1009.9 14.5 SSE 22.5 0.0
16:45 17.3 86.0 1009.9 11.3 SE 22.5 0.0
16:50 17.2 86.0 1010.0 8.0 ESE 17.7 0.0
16:55 17.2 86.0 1010.0 8.0 SE 17.7 0.0
17:00 17.4 86.0 1009.9 16.1 ESE 17.7 0.0
17:05 17.4 86.0 1009.9 6.4 SE 17.7 0.0
17:10 17.3 86.0 1010.0 6.4 ESE 17.7 0.0
17:15 17.2 85.0 1009.8 4.8 SSE 16.1 0.0
Màxima 21.7 95.0 1011.0 30.6 SW 30.6 0.2
Mínima 13.5 60.0 1009.1
Total 0.2